JA3VQW-13 Hirakata JP current weather conditions

sailwx.info

Wind from 115

Air temperature 27.2° C
Dewpoint 22.4° C

Last reported at 2019-Aug-21 19:03 UTC.
Time now 2019-Aug-21 19:54 UTC

Location: N 34°48' E 135°40'.
View on Google Maps.

See reports from other nearby stations

  
Tides and Currents Weather Stations Pressure Air Temp Water Temp Dewpoint Dewpoint Depression Visibility Wind Speed Wind Dir Waves Ship Positions
date/time (UTC)wind fromknots sea level pressurealtimeterstation pressurevisibilityair tempwater tempwave heightnotes
2019-Aug-21 19:03 115 27.2
2019-Aug-21 18:58 135 27.8
2019-Aug-21 18:43 208 27.8
2019-Aug-21 18:33 225 27.8
2019-Aug-21 18:28 254 27.8
2019-Aug-21 18:13 234 27.8
2019-Aug-21 18:03 270 27.8
2019-Aug-21 17:58 225 27.8
2019-Aug-21 17:43 225 27.8
2019-Aug-21 17:33 270 27.8
2019-Aug-21 17:28 270 27.8
2019-Aug-21 17:13 171 27.8
2019-Aug-21 17:03 135 28.3
2019-Aug-21 16:58 270 28.3
2019-Aug-21 16:43 135 28.3
2019-Aug-21 16:33 135 28.3
2019-Aug-21 16:28 162 28.3
2019-Aug-21 16:13 198 28.3
2019-Aug-21 16:03 135 28.3
2019-Aug-21 15:58 281 28.3
2019-Aug-21 15:43 284 28.3
2019-Aug-21 15:33 229 28.3
2019-Aug-21 15:28 206 28.9
2019-Aug-21 15:13 232 28.9
2019-Aug-21 15:03 135 28.9
2019-Aug-21 14:58 135 28.9
2019-Aug-21 14:43 135 28.9
2019-Aug-21 14:33 232 28.9
2019-Aug-21 14:28 255 28.9
2019-Aug-21 14:13 155 29.4
2019-Aug-21 14:03 150 29.4
2019-Aug-21 13:58 135 29.4
2019-Aug-21 13:43 171 29.4
2019-Aug-21 13:33 217 29.4
2019-Aug-21 13:28 225 29.4
2019-Aug-21 13:13 292 29.4
2019-Aug-21 13:03 136 29.4
2019-Aug-21 12:58 219 29.4
2019-Aug-21 12:43 135 29.4
2019-Aug-21 12:33 263 29.4
2019-Aug-21 12:28 247 29.4
2019-Aug-21 12:13 180 30.0
2019-Aug-21 12:03 182 30.0
2019-Aug-21 11:58 238 30.0
2019-Aug-21 11:43 135 30.0
2019-Aug-21 11:33 225 30.0
2019-Aug-21 11:28 225 30.0
2019-Aug-21 11:13 270 30.6
2019-Aug-21 11:03 287 1 gusting 4 30.6
2019-Aug-21 10:58 248 30.6
2019-Aug-21 10:43 270 2 gusting 4 30.6
2019-Aug-21 10:33 224 30.6
2019-Aug-21 10:28 236 30.6
2019-Aug-21 10:13 315 1 gusting 1 31.1
2019-Aug-21 10:03 135 0 gusting 2 31.1
2019-Aug-21 09:58 135 4 gusting 2 31.1
2019-Aug-21 09:43 245 2 gusting 4 31.1
2019-Aug-21 09:33 236 1 gusting 2 31.1
2019-Aug-21 09:28 171 0 gusting 2 31.1
2019-Aug-21 09:13 315 2 gusting 2 31.7
2019-Aug-21 09:03 288 2 gusting 2 31.7
2019-Aug-21 08:58 233 2 gusting 4 31.7
2019-Aug-21 08:43 261 32.2
2019-Aug-21 08:33 271 1 gusting 5 32.2
2019-Aug-21 08:28 227 2 gusting 5 32.2
2019-Aug-21 08:13 180 2 gusting 4 32.2
2019-Aug-21 08:03 273 32.8
2019-Aug-21 07:58 193 1 gusting 2 32.8
2019-Aug-21 07:43 311 1 gusting 6 32.8
2019-Aug-21 07:33 187 2 gusting 4 32.8
2019-Aug-21 07:28 225 1 gusting 4 32.8
2019-Aug-21 07:13 256 1 gusting 4 32.8
2019-Aug-21 07:03 183 2 gusting 5 33.3
2019-Aug-21 06:58 291 0 gusting 2 33.3
2019-Aug-21 06:43 234 34.4
2019-Aug-21 06:33 135 35.0
2019-Aug-21 06:28 273 1 gusting 2 35.0
2019-Aug-21 06:13 303 1 gusting 4 36.1
2019-Aug-21 06:03 246 2 gusting 4 35.6
2019-Aug-21 05:58 301 2 gusting 6 35.6
2019-Aug-21 05:43 296 5 gusting 7 35.6
2019-Aug-21 05:33 230 2 gusting 5 35.0
2019-Aug-21 05:28 303 6 gusting 6 35.6
2019-Aug-21 05:13 284 4 gusting 4 35.0
2019-Aug-21 05:03 315 2 gusting 4 35.0
2019-Aug-21 04:58 203 4 gusting 4 35.0
2019-Aug-21 04:43 239 2 gusting 5 35.0
2019-Aug-21 04:33 270 1 gusting 6 35.0
2019-Aug-21 04:28 250 4 gusting 6 34.4
2019-Aug-21 04:13 162 4 gusting 5 35.0
2019-Aug-21 04:03 282 4 gusting 7 35.0
2019-Aug-21 03:58 281 4 gusting 8 35.0
2019-Aug-21 03:43 268 4 gusting 6 34.4
2019-Aug-21 03:33 257 2 gusting 5 33.9
2019-Aug-21 03:28 290 2 gusting 6 33.9
2019-Aug-21 03:13 294 4 gusting 6 34.4
2019-Aug-21 03:03 256 4 gusting 6 33.9
2019-Aug-21 02:58 255 5 gusting 6 33.9
2019-Aug-21 02:43 181 6 gusting 7 33.3
2019-Aug-21 02:33 135 2 gusting 5 33.3
2019-Aug-21 02:28 214 33.3
2019-Aug-21 02:13 270 2 gusting 7 33.3
2019-Aug-21 02:03 142 33.3
2019-Aug-21 01:58 279 2 gusting 2 33.3
2019-Aug-21 01:43 179 2 gusting 5 33.3
2019-Aug-21 01:33 315 6 gusting 4 32.8
2019-Aug-21 01:28 135 32.8
2019-Aug-21 01:13 189 32.2
2019-Aug-21 01:03 135 1 gusting 1 31.7
2019-Aug-21 00:58 138 31.7
2019-Aug-21 00:43 192 31.7
2019-Aug-21 00:33 160 31.1
2019-Aug-21 00:28 183 31.7
2019-Aug-21 00:13 112 31.1
2019-Aug-21 00:03 135 30.6
2019-Aug-20 23:58 135 30.6
2019-Aug-20 23:43 135 29.4
2019-Aug-20 23:33 135 29.4
2019-Aug-20 23:28 225 28.9
2019-Aug-20 23:13 135 28.9
2019-Aug-20 23:03 137 28.3
2019-Aug-20 22:58 135 28.3
2019-Aug-20 22:43 228 28.3
2019-Aug-20 22:33 216 28.3
2019-Aug-20 22:28 260 28.3
2019-Aug-20 22:13 270 28.3
2019-Aug-20 22:03 270 28.3
2019-Aug-20 21:58 270 28.3
2019-Aug-20 21:43 270 28.3
2019-Aug-20 21:33 261 28.3
2019-Aug-20 21:28 225 28.3
2019-Aug-20 21:13 225 27.8
2019-Aug-20 21:03 225 27.8
2019-Aug-20 20:58 225 27.8
2019-Aug-20 20:43 225 27.8
2019-Aug-20 20:33 247 27.8
2019-Aug-20 20:28 270 27.8
2019-Aug-20 20:13 135 27.8
2019-Aug-20 20:03 278 27.8
2019-Aug-20 19:58 228 27.8
2019-Aug-20 19:43 292 27.8
2019-Aug-20 19:33 270 27.8
2019-Aug-20 19:28 270 27.8
2019-Aug-20 19:13 225 27.8
2019-Aug-20 19:03 225 27.8
2019-Aug-20 18:58 270 27.8
2019-Aug-20 18:43 271 27.8
2019-Aug-20 18:33 312 27.8
2019-Aug-20 18:28 291 27.8
2019-Aug-20 18:13 270 27.8
2019-Aug-20 18:03 299 27.8
2019-Aug-20 17:58 286 27.8
2019-Aug-20 17:43 242 27.8
2019-Aug-20 17:33 270 27.8
2019-Aug-20 17:28 225 27.8
2019-Aug-20 17:13 225 27.8
2019-Aug-20 17:03 270 1 27.8
2019-Aug-20 16:58 270 27.8
2019-Aug-20 16:43 229 27.8
2019-Aug-20 16:33 270 27.8
2019-Aug-20 16:28 246 27.8
2019-Aug-20 16:13 185 27.8
2019-Aug-20 16:03 156 27.8
2019-Aug-20 15:58 306 27.8
2019-Aug-20 15:43 225 27.8
2019-Aug-20 15:33 287 27.8
2019-Aug-20 15:28 270 27.8
2019-Aug-20 15:13 244 27.8
2019-Aug-20 15:03 292 28.3
2019-Aug-20 14:58 270 1 gusting 1 28.3
2019-Aug-20 14:43 269 28.3
2019-Aug-20 14:33 291 1 gusting 5 28.3
2019-Aug-20 14:28 274 28.3
2019-Aug-20 14:13 270 28.3
2019-Aug-20 14:03 254 0 gusting 1 28.3
2019-Aug-20 13:58 269 1 gusting 4 28.3
2019-Aug-20 13:43 138 28.3
2019-Aug-20 13:33 226 28.3
2019-Aug-20 13:28 207 28.3
2019-Aug-20 13:13 286 28.3
2019-Aug-20 13:03 283 28.3
2019-Aug-20 12:58 278 2 gusting 6 28.3
2019-Aug-20 12:43 287 1 28.3
2019-Aug-20 12:33 280 28.9
2019-Aug-20 12:28 275 28.9
2019-Aug-20 12:13 102 28.9
2019-Aug-20 12:03 315 25.6
2019-Aug-20 11:58 315 25.6
2019-Aug-20 11:43 315 25.6
2019-Aug-20 11:33 315 25.6
2019-Aug-20 11:28 315 25.6
2019-Aug-20 11:13 315 25.6
2019-Aug-20 11:03 315 25.6
2019-Aug-20 10:58 315 25.6
2019-Aug-20 10:43 315 25.6
2019-Aug-20 10:33 315 25.6
2019-Aug-20 10:28 315 25.6
2019-Aug-20 10:13 315 25.6
2019-Aug-20 10:03 315 25.6
2019-Aug-20 09:58 315 25.6
2019-Aug-20 09:43 315 25.6
2019-Aug-20 09:33 315 25.6
2019-Aug-20 09:28 315 25.6
2019-Aug-20 09:13 315 25.6
2019-Aug-20 09:03 315 25.6
2019-Aug-20 08:58 315 25.6
2019-Aug-20 08:43 315 25.6
2019-Aug-20 08:33 315 25.6
2019-Aug-20 08:28 315 25.6
2019-Aug-20 08:13 315 25.6
2019-Aug-20 08:03 315 25.6
2019-Aug-20 07:58 315 25.6
2019-Aug-20 07:43 315 25.6
2019-Aug-20 07:33 315 25.6
2019-Aug-20 07:28 315 25.6
2019-Aug-20 07:13 315 25.6
2019-Aug-20 07:03 315 25.6
2019-Aug-20 06:58 315 25.6
2019-Aug-20 06:43 315 25.6
2019-Aug-20 06:33 315 25.6
2019-Aug-20 06:28 315 25.6
2019-Aug-20 06:13 315 25.6
2019-Aug-20 06:03 315 25.6
2019-Aug-20 05:58 315 25.6
2019-Aug-20 05:43 315 25.6
2019-Aug-20 05:33 315 25.6
2019-Aug-20 05:28 315 25.6
2019-Aug-20 05:13 315 25.6
2019-Aug-20 05:03 315 25.6
2019-Aug-20 04:58 315 25.6
2019-Aug-20 04:43 315 25.6
2019-Aug-20 04:33 315 25.6
2019-Aug-20 04:28 315 25.6
2019-Aug-20 04:13 315 25.6
2019-Aug-20 04:03 315 25.6
2019-Aug-20 03:58 315 25.6
2019-Aug-20 03:43 315 25.6
2019-Aug-20 03:33 315 25.6
2019-Aug-20 03:28 315 25.6
2019-Aug-20 03:13 315 25.6
2019-Aug-20 03:03 315 25.6
2019-Aug-20 02:58 315 25.6
2019-Aug-20 02:43 315 25.6
2019-Aug-20 02:33 315 25.6
2019-Aug-20 02:28 315 25.6
2019-Aug-20 02:13 315 25.6
2019-Aug-20 02:03 315 25.6
2019-Aug-20 01:58 315 25.6
2019-Aug-20 01:43 315 25.6
2019-Aug-20 01:33 315 25.6
2019-Aug-20 01:28 315 25.6
2019-Aug-20 01:13 315 25.6
2019-Aug-20 01:03 315 25.6
2019-Aug-20 00:58 315 25.6
2019-Aug-20 00:43 315 25.6
2019-Aug-20 00:33 315 25.6
2019-Aug-20 00:28 315 25.6
2019-Aug-20 00:13 315 25.6
2019-Aug-20 00:03 270 25.0
2019-Aug-19 23:58 270 25.0
2019-Aug-19 23:43 270 24.4
2019-Aug-19 23:33 135 24.4
2019-Aug-19 23:28 135 24.4
2019-Aug-19 23:13 135 24.4
2019-Aug-19 23:03 135 25.0
2019-Aug-19 22:58 135 24.4
2019-Aug-19 22:43 135 24.4
2019-Aug-19 22:33 135 25.0
2019-Aug-19 22:28 135 25.0
2019-Aug-19 22:13 045 27.2
2019-Aug-19 22:03 045 26.7
2019-Aug-19 21:58 045 26.7
2019-Aug-19 21:43 090 26.7
2019-Aug-19 21:33 090 26.7
2019-Aug-19 21:28 090 26.1
2019-Aug-19 21:13 090 26.1
2019-Aug-19 21:03 090 25.6
2019-Aug-19 20:58 090 25.6
2019-Aug-19 20:43 090 25.6
2019-Aug-19 20:33 090 25.6
2019-Aug-19 20:28 090 25.6
2019-Aug-19 20:13 090 25.6
2019-Aug-19 20:03 090 25.6
2019-Aug-19 19:58 090 25.6
2019-Aug-19 19:43 090 25.6
2019-Aug-19 19:33 090 26.1
2019-Aug-19 19:28 090 26.1
2019-Aug-19 19:13 090 26.1
2019-Aug-19 19:03 090 26.1